[[{"header":{"parameterUnit":"m.s-1","parameterCategory":1,"la1":30.2991,"la2":30.254,"lo1":-89.0895,"lo2":-89.0444,"dy":0.0017,"dx":0.0017,"nx":28,"ny":28,"refTime":"2025-06-17T09:00:00:Z","depth":0,"parameterNumber":2,"parameterNumberName":"U-component_of_WINDS"},"data":[0,0,0,0,0,0,0,0,0,0,0,0,0,0,0,0,0,0,0,0,0,0,0,0,0,0,0,0,0,0,0,0,0,0,0,0,0,0,0,0,0,0,0,0,0,0,0,0,0,0,0,0,0,0,0,0,0,0,0.3136,0.3136,0,0.3165,0.3166,0.3166,0.3153,0.3152,0.3152,0.3151,0.3179,0.318,0.3182,0,0,0,0,0,0,0,0,0,0,0,0,0,0.3067,0.3069,0.3136,0.3136,0.3137,0.3165,0.3166,0.3166,0.3153,0.3152,0.3151,0.3151,0.3179,0.318,0.3182,0,0,0,0,0,0,0,0,0,0,0,0,0,0.3097,0.3069,0.3136,0.3134,0.3134,0.3165,0.3166,0.3166,0.3153,0.3152,0.3151,0.315,0.3178,0.318,0.3182,0.3217,0,0,0.3189,0.3189,0,0,0,0,0,0,0,0,0.3095,0.3099,0.3134,0.3134,0.3134,0.3154,0.3152,0.3183,0.3154,0.3146,0.3151,0.315,0.3172,0.3174,0.3182,0.3218,0.3219,0.3189,0.319,0.3191,0.3192,0,0,0,0,0,0,0,0.3093,0.3098,0.3148,0.3134,0.3135,0.3131,0.3134,0.3157,0.3164,0.3146,0.3146,0.3149,0.3171,0.318,0.3182,0.3219,0.3189,0.3191,0.3192,0.3193,0.3285,0.3286,0,0,0,0,0,0,0.3091,0.3096,0.3147,0.3148,0.3112,0.3133,0.3136,0.3149,0.3164,0.3165,0.315,0.3149,0.3177,0.318,0.3183,0.3225,0.3191,0.3193,0.3194,0.3284,0.3285,0.3287,0,0,0,0,0,0,0.309,0.3096,0.3145,0.3122,0.3128,0.3135,0.315,0.315,0.3159,0.3167,0.3168,0.3158,0.3176,0.318,0.3209,0.3226,0.3194,0.3196,0.3283,0.3284,0.3286,0.3308,0,0,0,0,0,0,0.3088,0.3096,0.3109,0.3123,0.313,0.3171,0.3151,0.3151,0.3162,0.3161,0.3174,0.3175,0.3176,0.3205,0.3211,0.3228,0.3197,0.3281,0.3283,0.3285,0.3306,0.3311,0.3314,0,0,0,0,0,0.3086,0.3114,0.311,0.3116,0.3147,0.3172,0.3176,0.3176,0.3164,0.3177,0.3183,0.3175,0.3223,0.3208,0.3214,0.3232,0.328,0.3283,0.3285,0.3304,0.331,0.3314,0,0,0,0,0,0,0.3101,0.3116,0.3111,0.3145,0.3157,0.317,0.3187,0.3182,0.3197,0.3195,0.3194,0.3197,0.3226,0.3232,0.3216,0.3267,0.325,0.3253,0.3262,0.3267,0.3271,0.327,0.3199,0,0,0,0,0,0.3109,0.3129,0.314,0.3168,0.3175,0.318,0.319,0.319,0.3202,0.3207,0.3214,0.3226,0.3244,0.3256,0.3273,0.3306,0.3309,0.3322,0.3326,0.333,0.3333,0.3352,0.3358,0.3295,0.3295,0.3295,0,0,0.3124,0.3134,0.3147,0.3171,0.3181,0.3201,0.3184,0.3206,0.322,0.321,0.3238,0.3243,0.3256,0.3288,0.3302,0.3294,0.3351,0.3333,0.3336,0.3337,0.3355,0.3361,0.3366,0.3297,0.3297,0.3297,0,0,0.3163,0.3172,0.3197,0.3208,0.3222,0.3226,0.3232,0.3245,0.3248,0.3276,0.3269,0.3286,0.3316,0.3326,0.3335,0.3377,0.3371,0.3383,0.3405,0.3423,0.3428,0.3432,0.3448,0.3453,0.3386,0.3386,0.3386,0,0.318,0.3211,0.3211,0.3233,0.3244,0.3237,0.3262,0.3271,0.329,0.3298,0.3288,0.3327,0.3335,0.3369,0.3379,0.3386,0.3393,0.3382,0.3428,0.3432,0.3436,0.3451,0.3456,0.3388,0.3388,0.3387,0.3387,0,0.3231,0.3252,0.327,0.329,0.3303,0.3327,0.333,0.3343,0.3341,0.3345,0.3373,0.3383,0.3402,0.3409,0.3407,0.3443,0.3437,0.3428,0.3411,0.3443,0.3457,0.3463,0.339,0.3389,0.3389,0.3388,0,0,0.328,0.33,0.3307,0.3316,0.3332,0.3348,0.3371,0.339,0.3402,0.3415,0.3434,0.346,0.3452,0.3462,0.3461,0.3477,0.351,0.3465,0.3466,0.3474,0.355,0.3558,0.3564,0.3506,0.3507,0.3508,0.3549,0,0.332,0.3362,0.3363,0.3401,0.342,0.3413,0.3433,0.3445,0.3449,0.3466,0.347,0.3489,0.3476,0.3482,0.3498,0.3503,0.3526,0.35,0.3524,0.3524,0.3521,0.3571,0.3579,0.3618,0.3555,0.3556,0.3556,0,0.3372,0.3389,0.3429,0.3442,0.3451,0.3469,0.3487,0.3503,0.3516,0.3518,0.3529,0.3526,0.3549,0.3531,0.3563,0.3545,0.3555,0.3559,0.356,0.3563,0.3543,0.3576,0.3631,0.3637,0.3565,0.3564,0.3563,0,0.3405,0.3436,0.3465,0.3473,0.3489,0.3502,0.3509,0.3521,0.3533,0.3548,0.3555,0.3573,0.3582,0.3596,0.3597,0.3583,0.3629,0.3611,0.3631,0.3631,0.3641,0.3641,0.3699,0.3647,0.3647,0.3647,0.3646,0,0.3449,0.3474,0.348,0.3497,0.3525,0.3525,0.3552,0.3558,0.3569,0.3587,0.3582,0.3599,0.3599,0.3616,0.3617,0.3643,0.3647,0.365,0.365,0.365,0.365,0.3657,0.3655,0.3648,0.3648,0.3647,0.3647,0,0.349,0.3495,0.3525,0.3539,0.3543,0.3562,0.3574,0.359,0.3594,0.3617,0.3622,0.3628,0.3648,0.365,0.3673,0.3674,0.3706,0.3703,0.3702,0.3702,0.3722,0.372,0.3787,0.3796,0.3738,0.3738,0.3739,0,0.3518,0.3538,0.3553,0.3566,0.3574,0.3594,0.3606,0.3607,0.3619,0.3636,0.365,0.367,0.3686,0.3718,0.3724,0.3741,0.3739,0.3761,0.3741,0.3742,0.374,0.3739,0.3741,0.3765,0.3766,0.3766,0.3767,0,0.3568,0.357,0.3588,0.3607,0.3622,0.3637,0.3651,0.3661,0.3663,0.3678,0.3699,0.3711,0.3735,0.3755,0.3772,0.3779,0.3773,0.3773,0.3778,0.378,0.3779,0.378,0.3713,0.3771,0.3771,0.377,0.377,0.377,0.3604,0.3621,0.3635,0.3655,0.3666,0.368,0.3696,0.3702,0.372,0.374,0.374,0.3763,0.3775,0.3798,0.3806,0.3824,0.3817,0.3825,0.3827,0.3829,0.3831,0.3776,0.3827,0.3827,0.3827,0.3827,0.3827,0,0.3654,0.3663,0.3682,0.3702,0.3718,0.3712,0.3727,0.3741,0.3762,0.3774,0.379,0.3814,0.3833,0.3841,0.3859,0.3872,0.387,0.3877,0.3876,0.3878,0.3837,0.383,0.3878,0.3878,0.3878,0.3878,0.3878,0.3878,0.3681,0.371,0.3714,0.3747,0.3756,0.3779,0.3789,0.3801,0.3811,0.3839,0.3855,0.386,0.387,0.389,0.3907,0.3909,0.3916,0.3924,0.3925,0.3886,0.3881,0.3876,0.387,0.3926,0.3926,0.3965,0.3965,0.3965]},{"header":{"parameterUnit":"m.s-1","parameterCategory":1,"la1":30.2991,"la2":30.254,"lo1":-89.0895,"lo2":-89.0444,"dy":0.0017,"dx":0.0017,"nx":28,"ny":28,"refTime":"2025-06-17T09:00:00:Z","depth":0,"parameterNumber":3,"parameterNumberName":"V-component_of_WINDS"},"data":[0,0,0,0,0,0,0,0,0,0,0,0,0,0,0,0,0,0,0,0,0,0,0,0,0,0,0,0,0,0,0,0,0,0,0,0,0,0,0,0,0,0,0,0,0,0,0,0,0,0,0,0,0,0,0,0,0,0,5.0038,5.0039,0,5.0143,5.0144,5.0146,5.0179,5.0179,5.0179,5.0178,5.0282,5.0285,5.0288,0,0,0,0,0,0,0,0,0,0,0,0,0,4.9864,4.9867,5.0038,5.0039,5.0041,5.0143,5.0144,5.0146,5.018,5.0179,5.0178,5.0178,5.0281,5.0285,5.0289,0,0,0,0,0,0,0,0,0,0,0,0,0,4.9952,4.9868,5.0038,5.007,5.0074,5.0143,5.0144,5.0146,5.018,5.0179,5.0178,5.0178,5.028,5.0285,5.0289,5.0333,0,0,5.0304,5.0306,0,0,0,0,0,0,0,0,4.9947,4.9958,5.0064,5.0068,5.0072,5.0148,5.0121,5.0209,5.018,5.0139,5.0178,5.0177,5.0238,5.0246,5.0267,5.0338,5.0342,5.0304,5.0307,5.0309,5.0311,0,0,0,0,0,0,0,4.994,4.9954,5.008,5.0065,5.0071,5.0078,5.009,5.0138,5.0191,5.0143,5.0146,5.0158,5.024,5.0262,5.027,5.0344,5.0304,5.0308,5.0311,5.0313,5.0456,5.0457,0,0,0,0,0,0,4.9929,4.9948,5.0076,5.0083,5.0007,5.0082,5.0095,5.0124,5.0191,5.02,5.0158,5.0159,5.0254,5.0264,5.0273,5.033,5.0309,5.0314,5.0317,5.0455,5.0456,5.0457,0,0,0,0,0,0,4.9926,4.9941,5.0072,5.0016,5.0034,5.0086,5.0118,5.0127,5.0149,5.0202,5.0212,5.0172,5.0254,5.0267,5.0318,5.0334,5.0316,5.032,5.0454,5.0456,5.0457,5.0442,0,0,0,0,0,0,4.992,4.9939,4.9956,5.0017,5.0037,5.0116,5.0119,5.0129,5.0158,5.016,5.0217,5.0226,5.0255,5.0311,5.0323,5.034,5.0324,5.0453,5.0455,5.0456,5.0441,5.0442,5.0444,0,0,0,0,0,4.9914,4.9947,4.9957,4.9972,5.006,5.0116,5.0128,5.0161,5.0159,5.0177,5.0211,5.0224,5.033,5.0316,5.033,5.0348,5.0452,5.0454,5.0456,5.0441,5.0442,5.0444,0,0,0,0,0,0,4.9886,4.9955,4.9967,5.0021,5.0063,5.0122,5.0146,5.0161,5.0204,5.0204,5.0242,5.0255,5.0304,5.0331,5.0314,5.0395,5.0392,5.0397,5.0375,5.0377,5.0378,5.0371,5.0328,0,0,0,0,0,4.9886,4.9927,4.9986,5.0027,5.0048,5.0093,5.0119,5.0141,5.0185,5.0203,5.0241,5.0282,5.0325,5.0353,5.0395,5.0445,5.0458,5.0465,5.0466,5.0467,5.0471,5.05,5.0504,5.0464,5.0464,5.0464,0,0,4.9887,4.993,4.9953,5.0023,5.0058,5.0099,5.0107,5.015,5.0181,5.0209,5.0261,5.029,5.0339,5.039,5.0415,5.0415,5.0485,5.047,5.047,5.0473,5.0503,5.0507,5.051,5.0465,5.0465,5.0465,0,0,4.9909,4.9945,4.9985,5.002,5.0074,5.0104,5.0113,5.0171,5.0192,5.0244,5.0266,5.0303,5.0375,5.041,5.0437,5.0473,5.0488,5.0486,5.0492,5.0521,5.0524,5.0527,5.0541,5.0545,5.049,5.049,5.049,0,4.9902,4.9967,5.0003,5.0045,5.0075,5.0104,5.0144,5.0176,5.0239,5.0259,5.0258,5.0351,5.0386,5.0446,5.0456,5.0476,5.0488,5.048,5.0521,5.0524,5.0528,5.0541,5.0546,5.0489,5.0489,5.0489,5.0489,0,4.9957,5.0001,5.0026,5.0089,5.0121,5.0162,5.0204,5.0233,5.0252,5.0282,5.0335,5.0378,5.043,5.0446,5.0465,5.051,5.0508,5.0514,5.0511,5.053,5.0544,5.0549,5.0488,5.0489,5.0489,5.0489,0,0,4.9964,5.0047,5.0056,5.0085,5.0146,5.0181,5.0223,5.0275,5.0299,5.0342,5.0379,5.044,5.0446,5.0477,5.0499,5.0524,5.0552,5.0527,5.0529,5.0531,5.0604,5.06,5.0606,5.0561,5.0562,5.0563,5.0601,0,4.9994,5.0073,5.0107,5.0169,5.021,5.0238,5.0275,5.0316,5.0345,5.0384,5.0416,5.0459,5.0464,5.0482,5.0508,5.0543,5.0567,5.054,5.0595,5.0597,5.0583,5.0613,5.0608,5.0641,5.0606,5.0607,5.0608,0,5.0041,5.0086,5.0153,5.021,5.0229,5.0262,5.0313,5.035,5.0397,5.0416,5.0451,5.0473,5.0518,5.0513,5.0576,5.0557,5.0581,5.0602,5.0604,5.061,5.0604,5.0621,5.0653,5.0658,5.0616,5.0615,5.0615,0,5.004,5.0118,5.0168,5.0192,5.026,5.0283,5.0312,5.0359,5.0388,5.0432,5.0452,5.05,5.0527,5.0563,5.0598,5.0591,5.0657,5.0655,5.0675,5.0674,5.0688,5.0686,5.0724,5.0702,5.0702,5.0702,5.0702,0,5.0072,5.0111,5.0169,5.02,5.0245,5.0284,5.0327,5.0359,5.04,5.0437,5.0464,5.0498,5.0541,5.058,5.0607,5.0655,5.0667,5.0683,5.069,5.0682,5.068,5.0698,5.0697,5.0703,5.0703,5.0703,5.0703,0,5.0079,5.0119,5.0176,5.0236,5.0252,5.0283,5.0335,5.0366,5.0396,5.0443,5.0456,5.0504,5.0552,5.059,5.0652,5.067,5.0721,5.0728,5.0705,5.0709,5.0727,5.0725,5.0779,5.0789,5.0759,5.0759,5.076,0,5.0096,5.0128,5.0193,5.022,5.0249,5.0293,5.0324,5.0363,5.0393,5.045,5.0474,5.0524,5.0567,5.0642,5.0682,5.0729,5.0738,5.0754,5.0745,5.0736,5.0739,5.0737,5.0741,5.0755,5.0755,5.0755,5.0755,0,5.0124,5.0142,5.0186,5.0238,5.0274,5.0316,5.0358,5.0379,5.0425,5.0458,5.0508,5.0541,5.0605,5.0655,5.0707,5.0736,5.0754,5.0758,5.0765,5.0757,5.0742,5.0751,5.0709,5.0756,5.0756,5.0756,5.0756,5.0756,5.0138,5.0167,5.0218,5.0266,5.0302,5.0341,5.0374,5.0409,5.0452,5.0508,5.0528,5.058,5.0627,5.0699,5.0729,5.0769,5.0771,5.0781,5.0784,5.0786,5.0785,5.0736,5.0779,5.0779,5.0779,5.0779,5.0779,0,5.0167,5.0201,5.0245,5.0304,5.0342,5.0356,5.0404,5.0435,5.048,5.0523,5.0565,5.0622,5.0671,5.0715,5.0765,5.0789,5.0798,5.0801,5.08,5.0806,5.0781,5.077,5.0793,5.0793,5.0793,5.0793,5.0793,5.0793,5.0187,5.0238,5.0263,5.0333,5.0366,5.0418,5.0444,5.048,5.0515,5.0579,5.062,5.0649,5.0692,5.0746,5.0791,5.0803,5.082,5.0821,5.0835,5.081,5.0808,5.0806,5.0796,5.0824,5.0824,5.0857,5.0857,5.0858]}]]